RYR4H EIDW-LEBL

Flight info

Callsign RYR4H
Flight time 2h 16m
Altitude 35000
Route PESIT2J PESIT DCT BAKUR DCT GUBJE DCT GISOK DCT TACQI DCT MANIG DCT KORER UM616 LUGEN/N0371F250 UM616 TUPAR DCT CNA DCT SECHE DCT AGN DCT TOU DCT LOMRA DCT ROCAN DCT PUMAL
Aircraft B738/M-SDE2E3FGHIRWXY/LB1

Departure

Time 2026-05-07 20:35
Airport Dublin Airport (EIDW)

Arrival

Time 2026-05-07 22:51
Airport Josep Tarradellas Barcelona-El Prat Airport (LEBL)
Time Latitude Longitude Altitude Speed Heading
2026-05-07 19:34 53.43012 -6.25009 212 ft 0 kts
2026-05-07 20:21 53.42998 -6.25010 219 ft 2 kts
2026-05-07 20:21 53.42982 -6.25013 217 ft 2 kts
2026-05-07 20:21 53.42965 -6.25016 215 ft 2 kts
2026-05-07 20:22 53.42953 -6.25004 210 ft 2 kts 277°
2026-05-07 20:22 53.42951 -6.24977 213 ft 2 kts 276°
2026-05-07 20:22 53.42950 -6.24965 215 ft 0 kts 275°
2026-05-07 20:28 53.42952 -6.24990 218 ft 6 kts 275°
2026-05-07 20:28 53.42957 -6.25081 215 ft 9 kts 275°
2026-05-07 20:28 53.42963 -6.25201 210 ft 11 kts 274°
2026-05-07 20:28 53.42946 -6.25323 210 ft 11 kts 274°
2026-05-07 20:29 53.43004 -6.25395 210 ft 11 kts 337°
2026-05-07 20:29 53.43077 -6.25448 213 ft 11 kts 336°
2026-05-07 20:29 53.43148 -6.25499 214 ft 11 kts 337°
2026-05-07 20:29 53.43216 -6.25548 210 ft 11 kts 336°
2026-05-07 20:30 53.43283 -6.25598 212 ft 10 kts 336°
2026-05-07 20:30 53.43348 -6.25646 216 ft 10 kts 338°
2026-05-07 20:30 53.43406 -6.25620 210 ft 10 kts 68°
2026-05-07 20:30 53.43404 -6.25503 210 ft 10 kts 95°
2026-05-07 20:31 53.43398 -6.25384 212 ft 10 kts 95°
2026-05-07 20:31 53.43391 -6.25269 214 ft 10 kts 96°
2026-05-07 20:31 53.43385 -6.25156 217 ft 10 kts 95°
2026-05-07 20:31 53.43379 -6.25046 210 ft 9 kts 95°
2026-05-07 20:32 53.43373 -6.24939 210 ft 9 kts 95°
2026-05-07 20:32 53.43368 -6.24835 213 ft 9 kts 96°
2026-05-07 20:32 53.43362 -6.24741 214 ft 7 kts 96°
2026-05-07 20:32 53.43358 -6.24662 219 ft 7 kts 95°
2026-05-07 20:33 53.43379 -6.24570 210 ft 10 kts 35°
2026-05-07 20:33 53.43446 -6.24552 211 ft 10 kts
2026-05-07 20:33 53.43510 -6.24561 216 ft 9 kts 323°
2026-05-07 20:33 53.43529 -6.24662 220 ft 9 kts 277°
2026-05-07 20:34 53.43539 -6.24821 212 ft 29 kts 275°
2026-05-07 20:34 53.43576 -6.25525 217 ft 90 kts 275°
2026-05-07 20:34 53.43650 -6.26854 218 ft 137 kts 275°
2026-05-07 20:34 53.43714 -6.28623 373 ft 160 kts 273°
2026-05-07 20:35 53.43844 -6.30548 695 ft 176 kts 275°
2026-05-07 20:35 53.44247 -6.32398 1349 ft 169 kts 313°
2026-05-07 20:35 53.45177 -6.33604 1923 ft 172 kts 316°
2026-05-07 20:35 53.46139 -6.35040 2228 ft 198 kts 315°
2026-05-07 20:36 53.47182 -6.36707 2463 ft 216 kts 307°
2026-05-07 20:36 53.48115 -6.38801 2782 ft 230 kts 303°
2026-05-07 20:36 53.49055 -6.41036 3160 ft 243 kts 303°
2026-05-07 20:36 53.50040 -6.43387 3562 ft 255 kts 303°
2026-05-07 20:37 53.50913 -6.45994 4252 ft 257 kts 284°
2026-05-07 20:37 53.50990 -6.48961 5054 ft 256 kts 256°
2026-05-07 20:37 53.50223 -6.51633 5805 ft 258 kts 229°
2026-05-07 20:37 53.48778 -6.53403 6542 ft 262 kts 201°
2026-05-07 20:38 53.46974 -6.53815 7252 ft 267 kts 176°
2026-05-07 20:38 53.45146 -6.53147 7978 ft 271 kts 165°
2026-05-07 20:38 53.43356 -6.52070 8688 ft 276 kts 159°
2026-05-07 20:38 53.41585 -6.50761 9419 ft 279 kts 157°
2026-05-07 20:39 53.39814 -6.49389 10114 ft 282 kts 157°
2026-05-07 20:39 53.37999 -6.47979 10363 ft 302 kts 157°
2026-05-07 20:39 53.36020 -6.46454 10537 ft 323 kts 157°
2026-05-07 20:39 53.33931 -6.44854 10956 ft 334 kts 158°
2026-05-07 20:40 53.31803 -6.43232 11598 ft 338 kts 158°
2026-05-07 20:40 53.29652 -6.41601 12294 ft 341 kts 158°
2026-05-07 20:40 53.27477 -6.39959 13001 ft 344 kts 159°
2026-05-07 20:40 53.25280 -6.38307 13697 ft 348 kts 159°
2026-05-07 20:41 53.23055 -6.36639 14298 ft 352 kts 159°
2026-05-07 20:41 53.20812 -6.34958 14994 ft 353 kts 159°
2026-05-07 20:41 53.18562 -6.33276 15658 ft 356 kts 159°
2026-05-07 20:41 53.16287 -6.31578 16303 ft 360 kts 159°
2026-05-07 20:42 53.14019 -6.29889 16986 ft 362 kts 159°
2026-05-07 20:42 53.11705 -6.28167 17662 ft 365 kts 159°
2026-05-07 20:42 53.09371 -6.26431 18292 ft 369 kts 159°
2026-05-07 20:42 53.07019 -6.24685 18869 ft 372 kts 159°
2026-05-07 20:43 53.04639 -6.22919 19439 ft 375 kts 159°
2026-05-07 20:43 53.02247 -6.21147 20006 ft 377 kts 159°
2026-05-07 20:43 52.99865 -6.19385 20547 ft 381 kts 159°
2026-05-07 20:43 52.97439 -6.17592 21102 ft 384 kts 159°
2026-05-07 20:44 52.94990 -6.15785 21643 ft 386 kts 159°
2026-05-07 20:44 52.92520 -6.13964 22171 ft 389 kts 159°
2026-05-07 20:44 52.90028 -6.12129 22688 ft 393 kts 159°
2026-05-07 20:44 52.87525 -6.10289 22984 ft 395 kts 159°
2026-05-07 20:45 52.85016 -6.08445 22977 ft 394 kts 159°
2026-05-07 20:45 52.82503 -6.06601 22984 ft 396 kts 159°
2026-05-07 20:45 52.79979 -6.04753 22991 ft 396 kts 159°
2026-05-07 20:45 52.77462 -6.02911 22983 ft 395 kts 159°
2026-05-07 20:46 52.74978 -6.01095 22991 ft 395 kts 159°
2026-05-07 20:46 52.72456 -5.99255 22992 ft 396 kts 159°
2026-05-07 20:46 52.69905 -5.97395 22991 ft 396 kts 159°
2026-05-07 20:46 52.67417 -5.95584 22993 ft 396 kts 159°
2026-05-07 20:47 52.64892 -5.93749 22993 ft 396 kts 159°
2026-05-07 20:47 52.62369 -5.91917 22995 ft 397 kts 159°
2026-05-07 20:47 52.59840 -5.90083 22997 ft 397 kts 159°
2026-05-07 20:47 52.57311 -5.88252 22995 ft 397 kts 159°
2026-05-07 20:48 52.54779 -5.86420 23001 ft 397 kts 159°
2026-05-07 20:48 52.52253 -5.84594 22992 ft 396 kts 159°
2026-05-07 20:48 52.49736 -5.82778 23006 ft 396 kts 159°
2026-05-07 20:48 52.47210 -5.80957 23009 ft 396 kts 159°
2026-05-07 20:49 52.44683 -5.79137 23003 ft 396 kts 159°
2026-05-07 20:49 52.42160 -5.77325 23003 ft 396 kts 159°
2026-05-07 20:49 52.39621 -5.75547 23007 ft 395 kts 162°
2026-05-07 20:49 52.36989 -5.74182 23179 ft 400 kts 166°
2026-05-07 20:50 52.34308 -5.72904 23706 ft 401 kts 166°
2026-05-07 20:50 52.31665 -5.71642 24233 ft 400 kts 166°
2026-05-07 20:50 52.28987 -5.70345 24686 ft 402 kts 165°
2026-05-07 20:50 52.26299 -5.69033 25099 ft 404 kts 165°
2026-05-07 20:51 52.23605 -5.67669 25510 ft 407 kts 162°
2026-05-07 20:51 52.20949 -5.65984 25906 ft 410 kts 160°
2026-05-07 20:51 52.18313 -5.64169 26309 ft 413 kts 159°
2026-05-07 20:51 52.15664 -5.62321 26693 ft 415 kts 159°
2026-05-07 20:52 52.13000 -5.60484 27071 ft 417 kts 159°
2026-05-07 20:52 52.10315 -5.58661 27454 ft 419 kts 160°
2026-05-07 20:52 52.07612 -5.56846 27825 ft 421 kts 160°
2026-05-07 20:52 52.04894 -5.55030 28182 ft 423 kts 160°
2026-05-07 20:53 52.02188 -5.53113 28537 ft 426 kts 157°
2026-05-07 20:53 51.99499 -5.51031 28886 ft 428 kts 156°
2026-05-07 20:53 51.96829 -5.48892 29231 ft 430 kts 156°
2026-05-07 20:53 51.94141 -5.46725 29567 ft 432 kts 156°
2026-05-07 20:54 51.91444 -5.44576 29975 ft 431 kts 156°
2026-05-07 20:54 51.88778 -5.42514 30416 ft 429 kts 157°
2026-05-07 20:54 51.86088 -5.40464 30809 ft 427 kts 157°
2026-05-07 20:54 51.83390 -5.38419 31131 ft 427 kts 157°
2026-05-07 20:55 51.80692 -5.36375 31444 ft 428 kts 157°
2026-05-07 20:55 51.77998 -5.34332 31795 ft 427 kts 157°
2026-05-07 20:55 51.75311 -5.32292 32149 ft 426 kts 157°
2026-05-07 20:55 51.72632 -5.30257 32484 ft 426 kts 157°
2026-05-07 20:56 51.69945 -5.28217 32788 ft 426 kts 157°
2026-05-07 20:56 51.67262 -5.26181 33103 ft 426 kts 157°
2026-05-07 20:56 51.64585 -5.24152 33432 ft 425 kts 157°
2026-05-07 20:56 51.61911 -5.22127 33740 ft 425 kts 157°
2026-05-07 20:57 51.59234 -5.20102 34019 ft 425 kts 157°
2026-05-07 20:57 51.56553 -5.18078 34251 ft 425 kts 157°
2026-05-07 20:57 51.53868 -5.16054 34436 ft 427 kts 157°
2026-05-07 20:57 51.51173 -5.14024 34628 ft 428 kts 157°
2026-05-07 20:58 51.48506 -5.12019 34845 ft 428 kts 157°
2026-05-07 20:58 51.45796 -5.09983 35026 ft 429 kts 157°
2026-05-07 20:58 51.43085 -5.07950 35017 ft 433 kts 157°
2026-05-07 20:59 51.37607 -5.03849 35023 ft 433 kts 157°
2026-05-07 20:59 51.32203 -4.99811 35021 ft 428 kts 157°
2026-05-07 21:00 51.26801 -4.95788 35028 ft 427 kts 157°
2026-05-07 21:00 51.21419 -4.91792 35048 ft 433 kts 157°
2026-05-07 21:01 51.15896 -4.87704 35034 ft 442 kts 157°
2026-05-07 21:01 51.10256 -4.83538 35029 ft 450 kts 157°
2026-05-07 21:02 51.04559 -4.79339 35039 ft 457 kts 157°
2026-05-07 21:02 50.98757 -4.75074 35023 ft 460 kts 157°
2026-05-07 21:03 50.92937 -4.70807 35019 ft 461 kts 158°
2026-05-07 21:03 50.87109 -4.66547 35031 ft 461 kts 158°
2026-05-07 21:04 50.81280 -4.62298 35027 ft 461 kts 158°
2026-05-07 21:04 50.75488 -4.58089 35032 ft 460 kts 158°
2026-05-07 21:05 50.69678 -4.53878 35023 ft 459 kts 158°
2026-05-07 21:05 50.63877 -4.49685 35025 ft 458 kts 158°
2026-05-07 21:06 50.58085 -4.45510 35025 ft 458 kts 158°
2026-05-07 21:06 50.52290 -4.41344 35021 ft 457 kts 158°
2026-05-07 21:07 50.46540 -4.37222 35026 ft 457 kts 158°
2026-05-07 21:07 50.41722 -4.33776 35025 ft 457 kts 158°
2026-05-07 21:08 50.35938 -4.29649 35016 ft 457 kts 158°
2026-05-07 21:08 50.30141 -4.25525 35017 ft 457 kts 158°
2026-05-07 21:09 50.24342 -4.21410 35016 ft 457 kts 158°
2026-05-07 21:09 50.18587 -4.17338 35014 ft 457 kts 158°
2026-05-07 21:10 50.12778 -4.13238 35017 ft 457 kts 158°
2026-05-07 21:10 50.06977 -4.09155 35014 ft 457 kts 158°
2026-05-07 21:11 50.01212 -4.05107 35011 ft 457 kts 158°
2026-05-07 21:11 49.92499 -3.99010 35010 ft 458 kts 158°
2026-05-07 21:12 49.86688 -3.94958 35007 ft 458 kts 158°
2026-05-07 21:12 49.80872 -3.90912 35007 ft 458 kts 158°
2026-05-07 21:13 49.75041 -3.86868 35008 ft 458 kts 158°
2026-05-07 21:13 49.69216 -3.82837 35006 ft 458 kts 159°
2026-05-07 21:14 49.63384 -3.78812 35008 ft 459 kts 159°
2026-05-07 21:14 49.57557 -3.74802 35004 ft 459 kts 159°
2026-05-07 21:15 49.51713 -3.70791 35011 ft 459 kts 159°
2026-05-07 21:15 49.45900 -3.66811 35007 ft 459 kts 159°
2026-05-07 21:16 49.40057 -3.62821 35002 ft 460 kts 159°
2026-05-07 21:16 49.34205 -3.58835 35006 ft 460 kts 159°
2026-05-07 21:17 49.28357 -3.54863 35009 ft 460 kts 159°
2026-05-07 21:17 49.22491 -3.50888 35011 ft 460 kts 159°
2026-05-07 21:18 49.16630 -3.46928 35011 ft 460 kts 159°
2026-05-07 21:18 49.10764 -3.42973 35015 ft 461 kts 159°
2026-05-07 21:19 49.04923 -3.39047 35011 ft 461 kts 159°
2026-05-07 21:19 48.99053 -3.35111 35015 ft 461 kts 159°
2026-05-07 21:20 48.93167 -3.31174 35015 ft 462 kts 159°
2026-05-07 21:20 48.87280 -3.27247 35021 ft 462 kts 159°
2026-05-07 21:21 48.81389 -3.23328 35015 ft 463 kts 159°
2026-05-07 21:21 48.75484 -3.19409 35018 ft 463 kts 159°
2026-05-07 21:22 48.69567 -3.15492 35018 ft 464 kts 159°
2026-05-07 21:22 48.63651 -3.11586 35015 ft 464 kts 159°
2026-05-07 21:23 48.57756 -3.07704 35019 ft 465 kts 159°
2026-05-07 21:23 48.51821 -3.03806 35020 ft 465 kts 159°
2026-05-07 21:24 48.45876 -2.99911 35020 ft 466 kts 159°
2026-05-07 21:24 48.39912 -2.96013 35019 ft 466 kts 159°
2026-05-07 21:25 48.33985 -2.92150 35016 ft 467 kts 159°
2026-05-07 21:25 48.28015 -2.88268 35007 ft 467 kts 159°
2026-05-07 21:26 48.22033 -2.84388 35008 ft 468 kts 159°
2026-05-07 21:26 48.16044 -2.80514 35000 ft 468 kts 159°
2026-05-07 21:27 48.10093 -2.76674 35003 ft 469 kts 159°
2026-05-07 21:27 48.04099 -2.72816 34997 ft 469 kts 159°
2026-05-07 21:28 47.98091 -2.68959 34995 ft 469 kts 160°
2026-05-07 21:28 47.92083 -2.65112 34998 ft 470 kts 160°
2026-05-07 21:29 47.86069 -2.61270 34997 ft 470 kts 160°
2026-05-07 21:29 47.80057 -2.57439 34992 ft 470 kts 160°
2026-05-07 21:30 47.74033 -2.53609 34992 ft 470 kts 160°
2026-05-07 21:30 47.68288 -2.48935 34998 ft 475 kts 145°
2026-05-07 21:31 47.63583 -2.42000 35004 ft 479 kts 133°
2026-05-07 21:31 47.59310 -2.34487 34991 ft 480 kts 132°
2026-05-07 21:32 47.54978 -2.26955 34994 ft 479 kts 133°
2026-05-07 21:32 47.50608 -2.19489 34994 ft 479 kts 133°
2026-05-07 21:33 47.46227 -2.12056 34992 ft 479 kts 133°
2026-05-07 21:33 47.41848 -2.04638 34993 ft 478 kts 133°
2026-05-07 21:34 47.37473 -1.97242 34993 ft 478 kts 133°
2026-05-07 21:34 47.33103 -1.89872 34991 ft 477 kts 133°
2026-05-07 21:35 47.28768 -1.82565 34988 ft 477 kts 133°
2026-05-07 21:35 47.24404 -1.75222 34990 ft 476 kts 133°
2026-05-07 21:36 47.20044 -1.67902 34993 ft 475 kts 133°
2026-05-07 21:36 47.15660 -1.60639 34990 ft 474 kts 137°
2026-05-07 21:37 47.10813 -1.54125 34995 ft 471 kts 141°
2026-05-07 21:37 47.05866 -1.47818 34992 ft 471 kts 141°
2026-05-07 21:38 47.00958 -1.41427 34988 ft 471 kts 141°
2026-05-07 21:38 46.96099 -1.35065 34991 ft 471 kts 141°
2026-05-07 21:39 46.91210 -1.28682 34996 ft 471 kts 141°
2026-05-07 21:39 46.86310 -1.22299 34995 ft 471 kts 141°
2026-05-07 21:40 46.81419 -1.15941 34994 ft 470 kts 141°
2026-05-07 21:40 46.76556 -1.09636 34995 ft 470 kts 141°
2026-05-07 21:41 46.71665 -1.03310 34993 ft 470 kts 141°
2026-05-07 21:41 46.66779 -0.97007 34993 ft 469 kts 141°
2026-05-07 21:42 46.61890 -0.90712 34988 ft 469 kts 141°
2026-05-07 21:42 46.56994 -0.84424 34992 ft 468 kts 141°
2026-05-07 21:43 46.52125 -0.78152 34984 ft 467 kts 141°
2026-05-07 21:43 46.47255 -0.71886 34978 ft 466 kts 141°
2026-05-07 21:44 46.42118 -0.66342 34981 ft 460 kts 154°
2026-05-07 21:44 46.36212 -0.63030 34991 ft 454 kts 165°
2026-05-07 21:45 46.30161 -0.60346 34979 ft 454 kts 165°
2026-05-07 21:45 46.24124 -0.57635 34969 ft 454 kts 165°
2026-05-07 21:46 46.18104 -0.54885 34968 ft 453 kts 165°
2026-05-07 21:46 46.12091 -0.52127 34967 ft 453 kts 165°
2026-05-07 21:47 46.06082 -0.49376 34965 ft 453 kts 165°
2026-05-07 21:47 46.00114 -0.46652 34963 ft 453 kts 165°
2026-05-07 21:48 45.94108 -0.43918 34962 ft 452 kts 165°
2026-05-07 21:48 45.88106 -0.41191 34972 ft 452 kts 165°
2026-05-07 21:49 45.82103 -0.38471 34962 ft 453 kts 165°
2026-05-07 21:49 45.76092 -0.35752 34966 ft 453 kts 165°
2026-05-07 21:50 45.70081 -0.33039 34969 ft 453 kts 165°
2026-05-07 21:50 45.64133 -0.30047 34962 ft 456 kts 157°
2026-05-07 21:51 45.58417 -0.26086 34963 ft 456 kts 156°
2026-05-07 21:51 45.52721 -0.22065 34971 ft 457 kts 156°
2026-05-07 21:52 45.47041 -0.18109 34965 ft 457 kts 156°
2026-05-07 21:52 45.41319 -0.14167 34964 ft 457 kts 156°
2026-05-07 21:53 45.35589 -0.10237 34964 ft 457 kts 156°
2026-05-07 21:53 45.30824 -0.06976 34963 ft 457 kts 156°
2026-05-07 21:54 45.25096 -0.03063 34964 ft 457 kts 156°
2026-05-07 21:54 45.19364 0.00845 34966 ft 457 kts 156°
2026-05-07 21:55 45.13638 0.04740 34961 ft 457 kts 156°
2026-05-07 21:55 45.07905 0.08632 34961 ft 457 kts 156°
2026-05-07 21:56 45.02174 0.12513 34962 ft 456 kts 156°
2026-05-07 21:56 44.96441 0.16387 34964 ft 456 kts 156°
2026-05-07 21:57 44.90747 0.20226 34961 ft 456 kts 156°
2026-05-07 21:57 44.85015 0.24082 34963 ft 456 kts 157°
2026-05-07 21:58 44.79286 0.27928 34963 ft 456 kts 157°
2026-05-07 21:58 44.73552 0.31768 34962 ft 456 kts 157°
2026-05-07 21:59 44.67822 0.35598 34964 ft 456 kts 157°
2026-05-07 21:59 44.62084 0.39425 34967 ft 456 kts 157°
2026-05-07 22:00 44.56347 0.43242 34960 ft 456 kts 157°
2026-05-07 22:00 44.50601 0.47059 34964 ft 456 kts 157°
2026-05-07 22:01 44.44893 0.50841 34964 ft 457 kts 157°
2026-05-07 22:01 44.39198 0.54837 34965 ft 458 kts 154°
2026-05-07 22:02 44.33588 0.59098 34971 ft 459 kts 154°
2026-05-07 22:02 44.27966 0.63366 34970 ft 460 kts 154°
2026-05-07 22:03 44.22329 0.67589 34954 ft 460 kts 155°
2026-05-07 22:03 44.16688 0.71780 34969 ft 459 kts 155°
2026-05-07 22:04 44.11040 0.75960 34969 ft 459 kts 155°
2026-05-07 22:04 44.05435 0.80101 34964 ft 459 kts 155°
2026-05-07 22:05 43.99796 0.84259 34974 ft 458 kts 155°
2026-05-07 22:05 43.94160 0.88406 34970 ft 458 kts 155°
2026-05-07 22:06 43.88532 0.92539 34970 ft 457 kts 155°
2026-05-07 22:06 43.82892 0.96671 34970 ft 457 kts 155°
2026-05-07 22:07 43.77274 1.00779 34974 ft 456 kts 155°
2026-05-07 22:07 43.71662 1.04873 34970 ft 456 kts 155°
2026-05-07 22:08 43.66090 1.08930 34967 ft 455 kts 156°
2026-05-07 22:08 43.60485 1.13002 34967 ft 454 kts 156°
2026-05-07 22:09 43.54889 1.17058 34970 ft 453 kts 156°
2026-05-07 22:09 43.49308 1.21095 34968 ft 452 kts 156°
2026-05-07 22:10 43.43738 1.25116 34973 ft 452 kts 156°
2026-05-07 22:10 43.38208 1.29100 34968 ft 451 kts 156°
2026-05-07 22:11 43.32650 1.33095 34973 ft 450 kts 156°
2026-05-07 22:11 43.27084 1.37088 34973 ft 450 kts 156°
2026-05-07 22:12 43.21529 1.41065 34979 ft 450 kts 156°
2026-05-07 22:12 43.15971 1.45036 34982 ft 450 kts 156°
2026-05-07 22:13 43.10449 1.48973 34977 ft 450 kts 156°
2026-05-07 22:13 43.04955 1.52887 34967 ft 432 kts 157°
2026-05-07 22:14 43.02339 1.54753 34970 ft 417 kts 157°
2026-05-07 22:14 42.99813 1.56553 34959 ft 402 kts 157°
2026-05-07 22:14 42.97350 1.58302 34682 ft 395 kts 158°
2026-05-07 22:14 42.94930 1.60014 34378 ft 390 kts 158°
2026-05-07 22:15 42.92526 1.61712 34025 ft 386 kts 158°
2026-05-07 22:15 42.90156 1.63385 33644 ft 382 kts 158°
2026-05-07 22:15 42.87795 1.65050 33246 ft 380 kts 158°
2026-05-07 22:15 42.85458 1.66699 32890 ft 376 kts 158°
2026-05-07 22:16 42.83145 1.68330 32527 ft 373 kts 158°
2026-05-07 22:16 42.80867 1.69934 32179 ft 371 kts 158°
2026-05-07 22:16 42.78582 1.71543 31819 ft 368 kts 159°
2026-05-07 22:16 42.76317 1.73137 31463 ft 365 kts 159°
2026-05-07 22:17 42.74063 1.74721 31128 ft 363 kts 159°
2026-05-07 22:17 42.71825 1.76293 30776 ft 361 kts 159°
2026-05-07 22:17 42.69598 1.77855 30428 ft 359 kts 159°
2026-05-07 22:17 42.67389 1.79404 30095 ft 356 kts 159°
2026-05-07 22:18 42.65197 1.80941 29700 ft 353 kts 159°
2026-05-07 22:18 42.60881 1.83962 29017 ft 345 kts 158°
2026-05-07 22:18 42.58779 1.85432 28630 ft 343 kts 158°
2026-05-07 22:19 42.56675 1.86902 28336 ft 338 kts 158°
2026-05-07 22:19 42.54586 1.88359 27957 ft 336 kts 158°
2026-05-07 22:19 42.52517 1.89802 27642 ft 332 kts 158°
2026-05-07 22:19 42.50467 1.91231 27281 ft 331 kts 158°
2026-05-07 22:20 42.48415 1.92658 26942 ft 331 kts 158°
2026-05-07 22:20 42.46368 1.94083 26611 ft 331 kts 158°
2026-05-07 22:20 42.44293 1.95524 26284 ft 341 kts 157°
2026-05-07 22:20 42.42150 1.97010 25941 ft 350 kts 157°
2026-05-07 22:21 42.39977 1.98520 25567 ft 350 kts 157°
2026-05-07 22:21 42.37815 2.00020 25202 ft 347 kts 158°
2026-05-07 22:21 42.35560 2.01027 24859 ft 337 kts 176°
2026-05-07 22:21 42.33245 2.01342 24640 ft 333 kts 179°
2026-05-07 22:22 42.30943 2.01584 24356 ft 331 kts 179°
2026-05-07 22:22 42.28633 2.01826 24096 ft 335 kts 178°
2026-05-07 22:22 42.26329 2.02085 23828 ft 340 kts 178°
2026-05-07 22:22 42.23963 2.02366 23520 ft 342 kts 178°
2026-05-07 22:23 42.21595 2.02657 23190 ft 340 kts 178°
2026-05-07 22:23 42.19244 2.02918 22892 ft 336 kts 183°
2026-05-07 22:23 42.16979 2.02393 22635 ft 326 kts 202°
2026-05-07 22:23 42.15017 2.00941 22357 ft 321 kts 218°
2026-05-07 22:24 42.13270 1.99074 22097 ft 319 kts 220°
2026-05-07 22:24 42.11571 1.97163 21827 ft 318 kts 221°
2026-05-07 22:24 42.09882 1.95246 21566 ft 317 kts 221°
2026-05-07 22:24 42.08211 1.93356 21309 ft 317 kts 221°
2026-05-07 22:25 42.06514 1.91450 21049 ft 317 kts 221°
2026-05-07 22:25 42.04810 1.89547 20793 ft 318 kts 220°
2026-05-07 22:25 42.03104 1.87649 20529 ft 319 kts 220°
2026-05-07 22:25 42.01389 1.85747 20269 ft 320 kts 220°
2026-05-07 22:26 41.99671 1.83846 20006 ft 320 kts 220°
2026-05-07 22:26 41.97945 1.81939 19743 ft 321 kts 220°
2026-05-07 22:26 41.96215 1.80029 19479 ft 322 kts 220°
2026-05-07 22:26 41.94479 1.78115 19216 ft 323 kts 220°
2026-05-07 22:27 41.92743 1.76204 18948 ft 323 kts 220°
2026-05-07 22:27 41.91000 1.74286 18691 ft 323 kts 220°
2026-05-07 22:27 41.89262 1.72374 18422 ft 323 kts 220°
2026-05-07 22:27 41.87522 1.70461 18123 ft 322 kts 220°
2026-05-07 22:28 41.85820 1.68592 17827 ft 319 kts 220°
2026-05-07 22:28 41.84114 1.66720 17553 ft 314 kts 220°
2026-05-07 22:28 41.82432 1.64875 17284 ft 310 kts 220°
2026-05-07 22:28 41.80767 1.63050 17032 ft 308 kts 220°
2026-05-07 22:29 41.79113 1.61238 16775 ft 306 kts 220°
2026-05-07 22:29 41.77469 1.59437 16531 ft 304 kts 220°
2026-05-07 22:29 41.75832 1.57648 16283 ft 303 kts 220°
2026-05-07 22:29 41.74198 1.55875 16032 ft 302 kts 217°
2026-05-07 22:30 41.72325 1.54635 15768 ft 303 kts 195°
2026-05-07 22:30 41.70266 1.54066 15562 ft 302 kts 191°
2026-05-07 22:30 41.68195 1.53564 15310 ft 303 kts 191°
2026-05-07 22:30 41.66118 1.53064 15064 ft 304 kts 191°
2026-05-07 22:31 41.64038 1.52553 14815 ft 304 kts 191°
2026-05-07 22:31 41.61952 1.52032 14560 ft 305 kts 192°
2026-05-07 22:31 41.59869 1.51505 14311 ft 306 kts 192°
2026-05-07 22:31 41.57800 1.50979 14060 ft 307 kts 192°
2026-05-07 22:32 41.55710 1.50449 13803 ft 305 kts 191°
2026-05-07 22:32 41.53602 1.50320 13501 ft 303 kts 173°
2026-05-07 22:32 41.51539 1.50776 13261 ft 298 kts 171°
2026-05-07 22:32 41.49504 1.51273 13005 ft 296 kts 171°
2026-05-07 22:33 41.47483 1.51761 12761 ft 294 kts 171°
2026-05-07 22:33 41.45473 1.52235 12522 ft 292 kts 171°
2026-05-07 22:33 41.43476 1.52696 12273 ft 291 kts 171°
2026-05-07 22:33 41.41486 1.53148 12040 ft 289 kts 171°
2026-05-07 22:34 41.39503 1.53595 11801 ft 289 kts 171°
2026-05-07 22:34 41.37523 1.54039 11565 ft 288 kts 171°
2026-05-07 22:34 41.35548 1.54481 11331 ft 288 kts 171°
2026-05-07 22:34 41.33568 1.54917 11089 ft 288 kts 172°
2026-05-07 22:35 41.31610 1.55308 10853 ft 288 kts 172°
2026-05-07 22:35 41.29630 1.55691 10617 ft 288 kts 173°
2026-05-07 22:35 41.27641 1.56075 10375 ft 288 kts 173°
2026-05-07 22:35 41.25664 1.56459 10138 ft 286 kts 172°
2026-05-07 22:36 41.23699 1.56842 9892 ft 283 kts 172°
2026-05-07 22:36 41.21759 1.57221 9635 ft 280 kts 172°
2026-05-07 22:36 41.19841 1.57596 9398 ft 277 kts 172°
2026-05-07 22:36 41.17943 1.57967 9163 ft 275 kts 172°
2026-05-07 22:37 41.16069 1.58464 8925 ft 276 kts 158°
2026-05-07 22:37 41.14511 1.59909 8702 ft 276 kts 130°
2026-05-07 22:37 41.13652 1.62118 8499 ft 274 kts 103°
2026-05-07 22:37 41.13459 1.64621 8290 ft 273 kts 91°
2026-05-07 22:38 41.13432 1.67139 8050 ft 271 kts 90°
2026-05-07 22:38 41.13403 1.69625 7820 ft 268 kts 91°
2026-05-07 22:38 41.13364 1.72082 7598 ft 265 kts 91°
2026-05-07 22:38 41.13267 1.74500 7375 ft 261 kts 96°
2026-05-07 22:39 41.13040 1.76880 7158 ft 258 kts 98°
2026-05-07 22:39 41.12798 1.79231 6943 ft 255 kts 98°
2026-05-07 22:39 41.12567 1.81549 6733 ft 252 kts 97°
2026-05-07 22:39 41.12344 1.83838 6529 ft 249 kts 97°
2026-05-07 22:40 41.12121 1.86101 6327 ft 245 kts 101°
2026-05-07 22:40 41.11452 1.88127 6095 ft 241 kts 131°
2026-05-07 22:40 41.10128 1.89363 5949 ft 236 kts 161°
2026-05-07 22:40 41.08520 1.89612 5830 ft 234 kts 187°
2026-05-07 22:41 41.06945 1.89097 5728 ft 233 kts 198°
2026-05-07 22:41 41.05405 1.88394 5605 ft 234 kts 200°
2026-05-07 22:41 41.03872 1.87657 5478 ft 235 kts 199°
2026-05-07 22:41 41.02319 1.86928 5255 ft 238 kts 199°
2026-05-07 22:42 41.00749 1.86203 4948 ft 240 kts 199°
2026-05-07 22:42 40.99169 1.85482 4654 ft 240 kts 199°
2026-05-07 22:42 40.98122 1.85003 4450 ft 241 kts 199°
2026-05-07 22:42 40.96531 1.84280 4143 ft 242 kts 198°
2026-05-07 22:43 40.94909 1.83679 3822 ft 243 kts 182°
2026-05-07 22:43 40.93311 1.84261 3515 ft 242 kts 144°
2026-05-07 22:43 40.92247 1.85945 3232 ft 241 kts 114°
2026-05-07 22:43 40.91943 1.88099 3027 ft 237 kts 85°
2026-05-07 22:44 40.92438 1.90108 2982 ft 226 kts 57°
2026-05-07 22:44 40.93496 1.91546 2968 ft 216 kts 34°
2026-05-07 22:44 40.94777 1.92561 2980 ft 214 kts 29°
2026-05-07 22:44 40.96082 1.93512 2973 ft 214 kts 29°
2026-05-07 22:45 40.97431 1.94347 2975 ft 214 kts 20°
2026-05-07 22:45 40.98848 1.94931 2992 ft 214 kts 16°
2026-05-07 22:45 41.00264 1.95484 3012 ft 210 kts 18°
2026-05-07 22:45 41.01661 1.96079 2998 ft 213 kts 19°
2026-05-07 22:46 41.03056 1.96702 2997 ft 217 kts 19°
2026-05-07 22:46 41.04485 1.97351 2982 ft 216 kts 19°
2026-05-07 22:46 41.05903 1.98000 2981 ft 215 kts 19°
2026-05-07 22:46 41.07312 1.98646 2979 ft 213 kts 19°
2026-05-07 22:47 41.08713 1.99289 2981 ft 213 kts 19°
2026-05-07 22:47 41.10113 1.99931 2984 ft 213 kts 19°
2026-05-07 22:47 41.11516 2.00574 2987 ft 213 kts 19°
2026-05-07 22:47 41.12920 2.01217 2994 ft 214 kts 19°
2026-05-07 22:48 41.14332 2.01865 2959 ft 217 kts 19°
2026-05-07 22:48 41.15779 2.02527 2730 ft 223 kts 19°
2026-05-07 22:48 41.17241 2.03198 2435 ft 221 kts 19°
2026-05-07 22:48 41.18682 2.03858 2137 ft 217 kts 19°
2026-05-07 22:49 41.20096 2.04505 1841 ft 210 kts 20°
2026-05-07 22:49 41.21424 2.05114 1568 ft 200 kts 20°
2026-05-07 22:49 41.22707 2.05702 1292 ft 191 kts 20°
2026-05-07 22:49 41.23932 2.06262 1060 ft 180 kts 20°
2026-05-07 22:50 41.25080 2.06791 825 ft 170 kts 20°
2026-05-07 22:50 41.26161 2.07286 637 ft 157 kts 19°
2026-05-07 22:50 41.27173 2.07759 410 ft 153 kts 19°
2026-05-07 22:50 41.28172 2.08203 203 ft 149 kts 18°
2026-05-07 22:51 41.29143 2.08647 24 ft 144 kts 19°
2026-05-07 22:51 41.29951 2.09018 17 ft 95 kts 19°
2026-05-07 22:51 41.30377 2.09212 20 ft 35 kts 19°
2026-05-07 22:51 41.30568 2.09274 20 ft 24 kts 342°
2026-05-07 22:52 41.30666 2.09176 17 ft 10 kts 312°
2026-05-07 22:52 41.30669 2.09090 19 ft 10 kts 233°
2026-05-07 22:52 41.30644 2.09069 17 ft 0 kts 199°
2026-05-07 22:53 41.30643 2.09069 17 ft 1 kts 198°
2026-05-07 22:53 41.30587 2.09045 17 ft 14 kts 199°
2026-05-07 22:53 41.30464 2.08989 17 ft 22 kts 199°
2026-05-07 22:54 41.30372 2.08851 16 ft 20 kts 245°
2026-05-07 22:54 41.30315 2.08683 16 ft 20 kts 245°
2026-05-07 22:54 41.30259 2.08520 17 ft 19 kts 245°
2026-05-07 22:54 41.30205 2.08362 18 ft 18 kts 245°
2026-05-07 22:55 41.30153 2.08210 17 ft 18 kts 246°
2026-05-07 22:55 41.30104 2.08062 17 ft 17 kts 246°
2026-05-07 22:55 41.30056 2.07920 16 ft 17 kts 243°
2026-05-07 22:55 41.30007 2.07785 16 ft 16 kts 245°
2026-05-07 22:56 41.29962 2.07653 16 ft 15 kts 244°
2026-05-07 22:56 41.29948 2.07528 17 ft 15 kts 313°
2026-05-07 22:56 41.29968 2.07408 19 ft 14 kts 308°
2026-05-07 22:56 41.30035 2.07382 21 ft 5 kts 24°
2026-05-07 22:57 41.30056 2.07396 20 ft 2 kts 26°
2026-05-07 22:57 41.30057 2.07396 20 ft 0 kts 26°